Regional Weather Roundup
Issued by NWS Bismarck, ND

Home | Current Version | Previous Version | Text Only | Print | Product List | Glossary On
Versions: 1 2 3 4 5 6 7 8 9 10 11 12 13 14 15 16 17 18 19 20 21 22 23 24 25 26 27 28 29 30 31 32 33 34 35 36 37 38 39 40 41 42 43 44 45 46 47 48 49 50
000
ASUS43 KBIS 111410
RWRBIS

NWR BROADCAST TEXT
NATIONAL WEATHER SERVICE BISMARCK ND
800 AM CST SUN DEC 11 2016

NOTE: "FAIR" INDICATES FEW OR NO CLOUDS BELOW 12,000 FEET WITH NO
SIGNIFICANT WEATHER AND/OR OBSTRUCTIONS TO VISIBILITY.


CITY           SKY/WX    TMP DP  RH WIND       PRES   REMARKS
WILLISTON      CLOUDY   -11 -16  78 N7        29.99S WCI -26
MINOT          FLURRIES  -3  -8  79 N9        29.99S WCI -19
MINOT AFB      LGT SNOW  -4  -9  80 N7        29.99F WCI -18
BISMARCK       FLURRIES   1  -4  79 N3        29.96F
DICKINSON      CLOUDY     2  -3  80 NW14      29.86R WCI -16
GARRISON         N/A     -2  -8  76 NE5       29.95S WCI -12
HETTINGER ARPT CLOUDY     9   3  77 NW18      29.86S WCI -10
JAMESTOWN      LGT SNOW   1  -3  83 N5        29.94S FOG     WCI  -9
CARRINGTON     LGT SNOW   1  -4  78 N8        29.98F WCI -12
HAZEN          CLOUDY     0  -4  85 N3        29.98S
RUGBY          LGT SNOW   0  -4  85 NE7       30.00F WCI -13
STANLEY        FLURRIES  -6  -9  84 NE5       29.96S WCI -17
TIOGA          FAIR     -11 -15  84 CALM      29.96S
WATFORD CITY   PTSUNNY   -9 -13  84 NW5       29.97R WCI -21
$$

CITY           SKY/WX    TMP DP  RH WIND       PRES   REMARKS
GRAND FORKS    LGT SNOW   4  -1  80 NE10      30.05F VSB 1   WCI -11
GRAND FORKS AF LGT SNOW   2  -3  80 NE9       30.04F WCI -13
DEVILS LAKE    LGT SNOW   0  -4  83 NE6       30.00S FOG     WCI -12
FARGO          LGT SNOW  11   6  81 N6        30.00R WCI   1
CANDO          LGT SNOW   1  -2  85 NE6       30.04F WCI -10
CAVALIER       LGT SNOW   0  -2  92 N7        30.11S VSB 1   WCI -13
GRAFTON        LGT SNOW   1  -2  85 NE8       30.10F WCI -12
GWINNER        CLOUDY    10   9  92 NE12      29.93F WCI  -4
LANGDON        LGT SNOW  -2  -8  78 NE10      30.01F WCI -19
ROLLA          LGT SNOW  -2  -8  78 N8        30.00F WCI -17
WALHALLA       LGT SNOW  -6  -6 100 NW7       30.12S WCI -20
$$

CITY           SKY/WX    TMP DP  RH WIND       PRES   REMARKS
ABERDEEN       CLOUDY    10   4  76 N8        29.92F WCI  -2
MOBRIDGE       CLOUDY     6  -1  73 W9        29.91R WCI  -8
BUFFALO          N/A     11   6  81 W14       29.79R WCI  -5
RAPID CITY     CLOUDY     1  -4  79 W5        29.85F WCI  -9
GLASGOW        CLOUDY   -11 -15  82 W3        29.97S
SIDNEY         CLOUDY   -12 -16  82 NW10      30.00R WCI -31
WOLF POINT     CLOUDY   -17 -21  82 CALM      30.02S
GLENDIVE       CLOUDY   -10 -14  82 W8        29.97R WCI -26
MILES CITY     CLEAR     -3  -9  75 NW6       29.98R WCI -15
BAKER          CLOUDY    -4  -8  83 W15       29.90R WCI -25
$$

CITY           SKY/WX    TMP DP  RH WIND       PRES   REMARKS
BILLINGS       FOG        2  -2  83 N3        29.90R VSB 1/4
GREAT FALLS    CLOUDY     0  -5  79 CALM      29.81F
REGINA         MOCLDY    -4 -11  71 S7        29.98F WCI -18
ESTEVAN        FLURRIES -11 -17  77 NW2       30.00R
$$





USA.gov is the U.S. government's official web portal to all federal, state and local government web resources and services.